Voltar ao catálogo

STARLINK-30514

AtivoComunicaçõesVLEO
NORAD 58028·PAYLOAD·🇺🇸 United States

Lançado Oct 9, 2023 de Vandenberg Space Force Base

Loading…

Próximas Passagens (próximas 24 horas)

TLE

AtualizadoSource: CelesTrak SupGP

Época: Sep 15, 2026, 02:55 UTC

1 58028C 23156A   26258.12201389 -.00009018  00000+0 -26638-3 0  2584
2 58028  53.1578 276.5449 0001293  89.9659   5.2015 15.34400493    19

Acompanhe STARLINK-30514 em tempo real com AllMySat

Download on the App Store